This is the latest recevied weather packets stored in our database for station/object DG0LHZ-10. If no packets are shown the sender has not sent any weather packets the latest 10 day(s).
| Time | Temp. | Humidity | Pressure | Rain* | Wind** | Luminosity | Snow |
|---|---|---|---|---|---|---|---|
| 1787672558 | 28.33° C | 33% | 1017.4 hPa | - | - | - | - |
| 1787671658 | 28.89° C | 33% | 1017.4 hPa | - | - | - | - |
| 1787670757 | 28.89° C | 33% | 1017.5 hPa | - | - | - | - |
| 1787669857 | 28.89° C | 33% | 1017.5 hPa | - | - | - | - |
| 1787668957 | 28.89° C | 33% | 1017.5 hPa | - | - | - | - |
| 1787668057 | 28.89° C | 33% | 1017.4 hPa | - | - | - | - |
| 1787667157 | 28.89° C | 34% | 1017.3 hPa | - | - | - | - |
| 1787666257 | 28.89° C | 34% | 1017.5 hPa | - | - | - | - |
| 1787665357 | 28.89° C | 35% | 1017.5 hPa | - | - | - | - |
| 1787664457 | 28.33° C | 35% | 1017.3 hPa | - | - | - | - |
| 1787663557 | 28.33° C | 36% | 1017.4 hPa | - | - | - | - |
| 1787662657 | 27.78° C | 36% | 1017.4 hPa | - | - | - | - |
| 1787661756 | 27.78° C | 37% | 1017.4 hPa | - | - | - | - |
| 1787660856 | 26.67° C | 38% | 1017.5 hPa | - | - | - | - |
| 1787659956 | 26.67° C | 38% | 1017.5 hPa | - | - | - | - |
| 1787659056 | 26.11° C | 40% | 1017.5 hPa | - | - | - | - |
| 1787658155 | 25.56° C | 40% | 1017.6 hPa | - | - | - | - |
| 1787657255 | 25.56° C | 41% | 1017.6 hPa | - | - | - | - |
| 1787656355 | 25° C | 41% | 1017.8 hPa | - | - | - | - |
| 1787655455 | 24.44° C | 42% | 1017.8 hPa | - | - | - | - |
| 1787654555 | 24.44° C | 44% | 1017.9 hPa | - | - | - | - |
| 1787653655 | 23.89° C | 44% | 1017.9 hPa | - | - | - | - |
| 1787652755 | 23.33° C | 45% | 1018 hPa | - | - | - | - |
| 1787651855 | 22.78° C | 46% | 1018 hPa | - | - | - | - |
| 1787650955 | 21.67° C | 47% | 1018 hPa | - | - | - | - |
* Rain since midnight (hover to see other rain measurements)
** Current wind speed in m/s (hover to see current wind gust speed)